Starlink 1502

operational
NORAD ID: 45764 Int'l Des: 2020-038 Owner: SPXS Country: US Constellation: starlink
LEOCIRCULARSTARLINK_TYPE

About Starlink 1502

Description loading...

Live Position

Loading 3D Globe...

Upcoming Passes

Altitude History

Altitude vs Time

uPlot chart will show altitude changes over time

Two-Line Element Set

1 45764U 20038AL 25353.60672392 .00000792 00000-0 72066-4 0 9995
2 45764 53.0535 216.1249 0001596 93.9053 266.2118 15.06400412304415
Epoch: Dec 19, 2025 • Age: 15 hours

Current Status

Altitude 564.0 km
Velocity 7.58 km/s
Sub-Earth Point -46.52°S, 93.4°W
Launch Date Jun 13, 2020
Age 5.5 years
Type internet

Technical Details

Classification Payload
Mass 260.00 kg
Dry Mass 248.00 kg
Total Mass 260.00 kg
Length 0.20 m
Diameter 2.80 m
Span 9.00 m
Shape Box + pan
Manufacturer SPXS
Bus Type Starlink
Phase Status In Orbit
Owner/State SPXS/US

Large Constellations

Loading constellations...